Time,TemperatureF,DewpointF,PressureIn,WindDirection,WindDirectionDegrees,WindSpeedMPH,WindSpeedGustMPH,Humidity,HourlyPrecipIn,Conditions,Clouds,dailyrainin,SolarRadiationWatts/m^2,SoftwareType,DateUTC
2013-04-17 00:00:00,75.7,69.1,30.13,NNE,23,4.1,8.1,80,0.00,CLR,,0.01,0.0,WeatherDisplay:10.37,2013-04-17 04:00:00,
2013-04-17 00:05:00,75.6,68.6,30.13,NE,40,3.6,8.1,79,0.00,RA,,0.00,0.0,WeatherDisplay:10.37,2013-04-17 04:05:00,
2013-04-17 00:10:00,75.4,68.4,30.12,NE,43,5.2,9.2,79,0.00,RA,,0.00,0.0,WeatherDisplay:10.37,2013-04-17 04:10:00,
2013-04-17 00:15:00,75.3,68.7,30.13,East,82,3.9,6.9,80,0.00,CLR,,0.00,0.0,WeatherDisplay:10.37,2013-04-17 04:15:00,
2013-04-17 00:20:00,75.4,68.4,30.12,ENE,69,4.9,9.2,79,0.00,CLR,,0.00,0.0,WeatherDisplay:10.37,2013-04-17 04:20:00,
2013-04-17 00:25:00,75.5,68.5,30.12,NE,40,3.4,9.2,79,0.00,CLR,,0.00,0.0,WeatherDisplay:10.37,2013-04-17 04:25:00,
2013-04-17 00:30:00,75.4,68.4,30.12,ENE,70,2.7,9.2,79,0.00,CLR,,0.00,0.0,WeatherDisplay:10.37,2013-04-17 04:30:00,
2013-04-17 00:35:00,75.3,68.3,30.12,NE,51,3.3,5.0,79,0.00,CLR,,0.00,0.0,WeatherDisplay:10.37,2013-04-17 04:35:00,
2013-04-17 00:40:00,75.3,68.3,30.12,ENE,69,3.2,10.4,79,0.00,CLR,,0.00,0.0,WeatherDisplay:10.37,2013-04-17 04:40:00,
2013-04-17 00:45:00,75.5,68.9,30.12,East,87,5.2,9.2,80,0.00,CLR,,0.00,0.0,WeatherDisplay:10.37,2013-04-17 04:45:00,
2013-04-17 00:50:00,75.6,69.0,30.12,NNE,16,4.1,5.8,80,0.00,CLR,,0.00,0.0,WeatherDisplay:10.37,2013-04-17 04:50:00,
2013-04-17 00:55:00,75.5,68.9,30.12,NE,44,3.5,4.6,80,0.00,CLR,,0.00,0.0,WeatherDisplay:10.37,2013-04-17 04:55:00,
2013-04-17 01:00:00,75.3,68.3,30.12,ENE,64,3.0,5.8,79,0.00,CLR,,0.00,0.0,WeatherDisplay:10.37,2013-04-17 05:00:00,
2013-04-17 01:05:00,75.2,68.2,30.12,ENE,74,4.7,8.1,79,0.00,CLR,,0.00,0.0,WeatherDisplay:10.37,2013-04-17 05:05:00,
2013-04-17 01:10:00,75.2,68.2,30.12,ENE,68,2.0,4.6,79,0.00,CLR,,0.00,0.0,WeatherDisplay:10.37,2013-04-17 05:10:00,
2013-04-17 01:15:00,75.2,67.9,30.11,East,86,4.9,4.9,78,0.00,CLR,,0.00,0.0,WeatherDisplay:10.37,2013-04-17 05:15:00,
2013-04-17 01:20:00,75.1,68.1,30.11,NE,50,2.6,4.0,79,0.00,CLR,,0.00,0.0,WeatherDisplay:10.37,2013-04-17 05:20:00,
2013-04-17 01:25:00,75.0,68.4,30.11,ENE,70,2.6,4.6,80,0.00,CLR,,0.00,0.0,WeatherDisplay:10.37,2013-04-17 05:25:00,
2013-04-17 01:30:00,74.9,68.3,30.11,ENE,74,4.0,4.6,80,0.00,CLR,,0.00,0.0,WeatherDisplay:10.37,2013-04-17 05:30:00,
2013-04-17 01:35:00,74.9,68.7,30.11,ENE,59,2.8,3.5,81,0.00,CLR,,0.00,0.0,WeatherDisplay:10.37,2013-04-17 05:35:00,
2013-04-17 01:40:00,74.9,68.3,30.11,NNE,33,3.9,6.0,80,0.00,CLR,,0.00,0.0,WeatherDisplay:10.37,2013-04-17 05:40:00,
2013-04-17 01:45:00,75.1,68.5,30.11,NNE,28,2.3,4.0,80,0.00,CLR,,0.00,0.0,WeatherDisplay:10.37,2013-04-17 05:45:00,
2013-04-17 01:50:00,74.9,68.3,30.11,NNE,28,1.6,6.0,80,0.00,CLR,,0.00,0.0,WeatherDisplay:10.37,2013-04-17 05:50:00,
2013-04-17 01:55:00,74.9,68.3,30.10,NE,41,3.2,6.9,80,0.00,CLR,,0.00,0.0,WeatherDisplay:10.37,2013-04-17 05:55:00,
2013-04-17 02:00:00,74.8,68.2,30.10,NE,45,1.9,3.5,80,0.00,CLR,,0.00,0.0,WeatherDisplay:10.37,2013-04-17 06:00:00,
2013-04-17 02:05:00,74.8,68.2,30.10,East,82,2.7,3.5,80,0.00,CLR,,0.00,0.0,WeatherDisplay:10.37,2013-04-17 06:05:00,
2013-04-17 02:10:00,74.8,67.8,30.10,ENE,59,2.8,5.8,79,0.00,CLR,,0.00,0.0,WeatherDisplay:10.37,2013-04-17 06:10:00,
2013-04-17 02:15:00,74.8,67.8,30.10,ENE,65,3.4,6.0,79,0.00,CLR,,0.00,0.0,WeatherDisplay:10.37,2013-04-17 06:15:00,
2013-04-17 02:20:00,74.7,68.1,30.09,NE,44,3.7,4.6,80,0.00,CLR,,0.00,0.0,WeatherDisplay:10.37,2013-04-17 06:20:00,
2013-04-17 02:25:00,74.7,68.1,30.09,East,94,3.1,5.8,80,0.00,CLR,,0.00,0.0,WeatherDisplay:10.37,2013-04-17 06:25:00,
2013-04-17 02:30:00,74.6,68.0,30.09,East,86,3.0,8.1,80,0.00,CLR,,0.00,0.0,WeatherDisplay:10.37,2013-04-17 06:30:00,
2013-04-17 02:35:00,74.6,68.4,30.09,ENE,68,4.0,5.8,81,0.00,CLR,,0.00,0.0,WeatherDisplay:10.37,2013-04-17 06:35:00,
2013-04-17 02:40:00,74.7,68.5,30.09,ENE,69,1.7,3.5,81,0.00,CLR,,0.00,0.0,WeatherDisplay:10.37,2013-04-17 06:40:00,
2013-04-17 02:45:00,74.6,68.4,30.09,ENE,68,3.9,3.9,81,0.00,CLR,,0.00,0.0,WeatherDisplay:10.37,2013-04-17 06:45:00,
2013-04-17 02:50:00,74.6,68.4,30.08,ENE,67,3.7,5.8,81,0.00,CLR,,0.00,0.0,WeatherDisplay:10.37,2013-04-17 06:50:00,
2013-04-17 02:55:00,74.5,68.3,30.08,NE,35,3.0,5.0,81,0.00,CLR,,0.00,0.0,WeatherDisplay:10.37,2013-04-17 06:55:00,
2013-04-17 03:00:00,74.5,67.9,30.08,NE,40,3.3,8.1,80,0.00,CLR,,0.00,0.0,WeatherDisplay:10.37,2013-04-17 07:00:00,
2013-04-17 03:05:00,74.5,68.3,30.08,ENE,71,2.9,4.0,81,0.00,CLR,,0.00,0.0,WeatherDisplay:10.37,2013-04-17 07:05:00,
2013-04-17 03:10:00,74.6,68.0,30.08,NNE,28,4.0,5.8,80,0.00,CLR,,0.00,0.0,WeatherDisplay:10.37,2013-04-17 07:10:00,
2013-04-17 03:15:00,74.6,68.0,30.08,ENE,60,2.2,3.5,80,0.00,CLR,,0.00,0.0,WeatherDisplay:10.37,2013-04-17 07:15:00,
2013-04-17 03:20:00,74.4,67.8,30.08,ENE,72,2.3,3.5,80,0.00,CLR,,0.00,0.0,WeatherDisplay:10.37,2013-04-17 07:20:00,
2013-04-17 03:25:00,74.3,67.7,30.08,ENE,74,1.0,3.5,80,0.00,CLR,,0.00,0.0,WeatherDisplay:10.37,2013-04-17 07:25:00,
2013-04-17 03:30:00,74.2,67.3,30.08,ENE,65,2.4,3.5,79,0.00,CLR,,0.00,0.0,WeatherDisplay:10.37,2013-04-17 07:30:00,
2013-04-17 03:35:00,74.1,67.5,30.08,NNE,27,1.6,6.0,80,0.00,CLR,,0.00,0.0,WeatherDisplay:10.37,2013-04-17 07:35:00,
2013-04-17 03:40:00,74.0,67.8,30.08,NNE,21,1.9,3.5,81,0.00,CLR,,0.00,0.0,WeatherDisplay:10.37,2013-04-17 07:40:00,
2013-04-17 03:45:00,74.2,68.0,30.08,North,360,0.7,3.5,81,0.00,CLR,,0.00,0.0,WeatherDisplay:10.37,2013-04-17 07:45:00,
2013-04-17 03:50:00,74.2,67.6,30.08,ENE,57,0.0,2.3,80,0.00,CLR,,0.00,0.0,WeatherDisplay:10.37,2013-04-17 07:50:00,
2013-04-17 03:55:00,74.1,67.5,30.08,NNE,24,0.5,4.0,80,0.00,CLR,,0.00,0.0,WeatherDisplay:10.37,2013-04-17 07:55:00,
2013-04-17 04:00:00,73.9,67.3,30.08,NE,45,0.9,2.3,80,0.00,CLR,,0.00,0.0,WeatherDisplay:10.37,2013-04-17 08:00:00,
2013-04-17 04:05:00,73.8,67.2,30.08,NE,51,2.0,3.5,80,0.00,CLR,,0.00,0.0,WeatherDisplay:10.37,2013-04-17 08:05:00,
2013-04-17 04:10:00,73.7,67.5,30.08,NE,35,0.0,3.5,81,0.00,CLR,,0.00,0.0,WeatherDisplay:10.37,2013-04-17 08:10:00,
2013-04-17 04:15:00,73.6,67.4,30.08,NE,34,0.5,3.5,81,0.00,CLR,,0.00,0.0,WeatherDisplay:10.37,2013-04-17 08:15:00,
2013-04-17 04:20:00,73.5,67.3,30.08,NNE,24,0.0,2.3,81,0.00,CLR,,0.00,0.0,WeatherDisplay:10.37,2013-04-17 08:20:00,
2013-04-17 04:25:00,73.5,67.3,30.08,NNE,24,0.0,0.0,81,0.00,CLR,,0.00,0.0,WeatherDisplay:10.37,2013-04-17 08:25:00,
2013-04-17 04:30:00,73.5,67.3,30.08,ENE,67,2.4,4.6,81,0.00,CLR,,0.00,0.0,WeatherDisplay:10.37,2013-04-17 08:30:00,
2013-04-17 04:35:00,73.5,67.7,30.08,ENE,59,2.7,5.0,82,0.00,CLR,,0.00,0.0,WeatherDisplay:10.37,2013-04-17 08:35:00,
2013-04-17 04:40:00,73.5,67.7,30.08,East,80,0.9,2.3,82,0.00,CLR,,0.00,0.0,WeatherDisplay:10.37,2013-04-17 08:40:00,
2013-04-17 04:45:00,73.5,67.3,30.07,ENE,69,1.1,4.6,81,0.00,CLR,,0.00,0.0,WeatherDisplay:10.37,2013-04-17 08:45:00,
2013-04-17 04:50:00,73.4,67.2,30.07,East,82,2.3,4.0,81,0.00,CLR,,0.00,0.0,WeatherDisplay:10.37,2013-04-17 08:50:00,
2013-04-17 04:55:00,73.4,67.6,30.07,NNE,28,0.9,2.0,82,0.00,CLR,,0.00,0.0,WeatherDisplay:10.37,2013-04-17 08:55:00,
2013-04-17 05:00:00,73.4,67.6,30.07,NE,44,0.6,3.5,82,0.00,CLR,,0.00,0.0,WeatherDisplay:10.37,2013-04-17 09:00:00,
2013-04-17 05:05:00,73.4,67.6,30.07,NE,45,0.3,3.5,82,0.00,CLR,,0.00,0.0,WeatherDisplay:10.37,2013-04-17 09:05:00,
2013-04-17 05:10:00,73.4,67.2,30.07,NE,38,0.0,0.0,81,0.00,CLR,,0.00,0.0,WeatherDisplay:10.37,2013-04-17 09:10:00,
2013-04-17 05:15:00,73.4,67.6,30.07,NNE,27,0.3,3.0,82,0.00,CLR,,0.00,0.0,WeatherDisplay:10.37,2013-04-17 09:15:00,
2013-04-17 05:20:00,73.4,67.2,30.07,ENE,65,2.7,3.5,81,0.00,CLR,,0.00,0.0,WeatherDisplay:10.37,2013-04-17 09:20:00,
2013-04-17 05:25:00,73.3,67.1,30.07,ENE,71,0.0,0.0,81,0.00,CLR,,0.00,0.0,WeatherDisplay:10.37,2013-04-17 09:25:00,
2013-04-17 05:30:00,73.3,67.1,30.07,ENE,68,1.1,2.3,81,0.00,CLR,,0.00,0.0,WeatherDisplay:10.37,2013-04-17 09:30:00,
2013-04-17 05:35:00,73.2,67.4,30.07,ENE,67,0.0,2.0,82,0.00,CLR,,0.00,0.0,WeatherDisplay:10.37,2013-04-17 09:35:00,
2013-04-17 05:40:00,73.1,67.3,30.07,ENE,67,1.6,2.3,82,0.00,CLR,,0.00,0.0,WeatherDisplay:10.37,2013-04-17 09:40:00,
2013-04-17 05:45:00,73.2,67.4,30.07,NE,41,0.1,1.0,82,0.00,CLR,,0.00,0.0,WeatherDisplay:10.37,2013-04-17 09:45:00,
2013-04-17 05:50:00,73.2,67.4,30.07,NE,53,0.5,2.0,82,0.00,CLR,,0.00,0.0,WeatherDisplay:10.37,2013-04-17 09:50:00,
2013-04-17 05:55:00,73.2,67.4,30.08,ENE,65,1.1,3.5,82,0.00,CLR,,0.00,0.0,WeatherDisplay:10.37,2013-04-17 09:55:00,
2013-04-17 06:00:00,73.2,67.4,30.08,East,91,2.7,4.6,82,0.00,CLR,,0.00,0.0,WeatherDisplay:10.37,2013-04-17 10:00:00,
2013-04-17 06:05:00,73.3,67.5,30.08,ENE,57,1.5,2.0,82,0.00,CLR,,0.00,0.0,WeatherDisplay:10.37,2013-04-17 10:05:00,
2013-04-17 06:10:00,73.4,67.2,30.08,East,91,3.8,4.0,81,0.00,CLR,,0.00,0.0,WeatherDisplay:10.37,2013-04-17 10:10:00,
2013-04-17 06:15:00,73.5,67.3,30.08,East,82,0.0,0.0,81,0.00,CLR,,0.00,0.0,WeatherDisplay:10.37,2013-04-17 10:15:00,
2013-04-17 06:20:00,73.5,67.3,30.08,ENE,76,0.8,3.5,81,0.00,CLR,,0.00,0.0,WeatherDisplay:10.37,2013-04-17 10:20:00,
2013-04-17 06:25:00,73.5,67.3,30.09,ENE,73,0.6,2.0,81,0.00,OVC,,0.00,0.0,WeatherDisplay:10.37,2013-04-17 10:25:00,
2013-04-17 06:30:00,73.6,67.4,30.09,ENE,71,0.1,3.5,81,0.00,OVC,,0.00,0.0,WeatherDisplay:10.37,2013-04-17 10:30:00,
2013-04-17 06:35:00,73.6,67.0,30.09,NE,46,0.3,0.0,80,0.00,OVC,,0.00,0.0,WeatherDisplay:10.37,2013-04-17 10:35:00,
2013-04-17 06:40:00,73.5,66.6,30.09,NE,35,0.7,2.3,79,0.00,OVC,,0.00,0.0,WeatherDisplay:10.37,2013-04-17 10:40:00,
2013-04-17 06:45:00,73.5,66.9,30.09,NE,36,0.0,0.0,80,0.00,OVC,,0.00,0.0,WeatherDisplay:10.37,2013-04-17 10:45:00,
2013-04-17 06:50:00,73.4,67.6,30.09,NNE,32,0.0,2.3,82,0.00,OVC,,0.00,0.0,WeatherDisplay:10.37,2013-04-17 10:50:00,
2013-04-17 06:55:00,73.5,67.7,30.09,NNE,19,0.0,3.5,82,0.00,OVC,,0.00,5.0,WeatherDisplay:10.37,2013-04-17 10:55:00,
2013-04-17 07:00:00,73.4,67.2,30.10,ENE,63,0.3,3.5,81,0.00,SCT,,0.00,7.0,WeatherDisplay:10.37,2013-04-17 11:00:00,
2013-04-17 07:05:00,73.5,67.7,30.10,East,80,1.3,4.6,82,0.00,BKN,,0.00,12.0,WeatherDisplay:10.37,2013-04-17 11:05:00,
2013-04-17 07:10:00,73.6,67.4,30.10,NE,34,0.2,5.0,81,0.00,SCT,,0.00,23.0,WeatherDisplay:10.37,2013-04-17 11:10:00,
2013-04-17 07:15:00,73.8,67.6,30.10,ENE,73,1.4,4.6,81,0.00,SCT,,0.00,32.0,WeatherDisplay:10.37,2013-04-17 11:15:00,
2013-04-17 07:20:00,73.9,67.3,30.10,NNE,30,2.0,3.5,80,0.00,SCT,,0.00,39.0,WeatherDisplay:10.37,2013-04-17 11:20:00,
2013-04-17 07:25:00,74.0,67.4,30.10,NE,55,1.2,3.5,80,0.00,SCT,,0.00,40.0,WeatherDisplay:10.37,2013-04-17 11:25:00,
2013-04-17 07:30:00,74.1,67.2,30.11,ENE,66,1.7,3.5,79,0.00,SCT,,0.00,49.0,WeatherDisplay:10.37,2013-04-17 11:30:00,
2013-04-17 07:35:00,74.3,67.4,30.11,NNE,29,0.1,2.0,79,0.00,SCT,,0.00,56.0,WeatherDisplay:10.37,2013-04-17 11:35:00,
2013-04-17 07:40:00,74.4,67.5,30.11,NNE,27,0.3,3.5,79,0.00,SCT,,0.00,69.0,WeatherDisplay:10.37,2013-04-17 11:40:00,
2013-04-17 07:45:00,74.6,67.7,30.11,ENE,65,0.0,4.6,79,0.00,BKN,,0.00,62.0,WeatherDisplay:10.37,2013-04-17 11:45:00,
2013-04-17 07:50:00,74.8,67.8,30.11,NE,53,1.6,7.0,79,0.00,BKN,,0.00,77.0,WeatherDisplay:10.37,2013-04-17 11:50:00,
2013-04-17 07:55:00,75.0,68.0,30.11,NE,39,2.9,4.0,79,0.00,BKN,,0.00,97.0,WeatherDisplay:10.37,2013-04-17 11:55:00,
2013-04-17 08:00:00,75.3,67.6,30.11,ENE,66,1.6,6.9,77,0.00,SCT,,0.00,148.0,WeatherDisplay:10.37,2013-04-17 12:00:00,
2013-04-17 08:05:00,75.4,67.7,30.12,NE,50,3.0,8.0,77,0.00,SCT,SCT,0.00,111.0,WeatherDisplay:10.37,2013-04-17 12:05:00,
2013-04-17 08:10:00,75.5,67.8,30.12,NNE,33,2.2,4.0,77,0.00,SCT,,0.00,294.0,WeatherDisplay:10.37,2013-04-17 12:10:00,
2013-04-17 08:15:00,75.7,67.6,30.12,NNE,19,3.7,5.8,76,0.00,SCT,,0.00,118.0,WeatherDisplay:10.37,2013-04-17 12:15:00,
2013-04-17 08:20:00,75.8,67.3,30.12,NE,36,3.7,4.6,75,0.00,SCT,,0.00,320.0,WeatherDisplay:10.37,2013-04-17 12:20:00,
2013-04-17 08:25:00,75.9,67.4,30.12,NE,51,1.4,3.5,75,0.00,SCT,,0.00,83.0,WeatherDisplay:10.37,2013-04-17 12:25:00,
2013-04-17 08:30:00,75.8,67.3,30.12,NE,34,2.4,6.9,75,0.00,BKN,,0.00,98.0,WeatherDisplay:10.37,2013-04-17 12:30:00,
2013-04-17 08:35:00,75.8,67.7,30.12,NE,37,2.3,3.0,76,0.00,BKN,,0.00,83.0,WeatherDisplay:10.37,2013-04-17 12:35:00,
2013-04-17 08:40:00,75.9,67.8,30.12,ENE,74,2.3,4.6,76,0.00,BKN,,0.00,237.0,WeatherDisplay:10.37,2013-04-17 12:40:00,
2013-04-17 08:45:00,76.1,67.6,30.12,ENE,68,2.8,3.5,75,0.00,BKN,,0.00,399.0,WeatherDisplay:10.37,2013-04-17 12:45:00,
2013-04-17 08:50:00,76.4,67.5,30.12,NNE,26,2.9,3.5,74,0.00,SCT,,0.00,114.0,WeatherDisplay:10.37,2013-04-17 12:50:00,
2013-04-17 08:55:00,76.4,67.1,30.12,NNE,32,2.3,6.9,73,0.00,BKN,,0.00,102.0,WeatherDisplay:10.37,2013-04-17 12:55:00,
2013-04-17 09:00:00,76.9,68.0,30.13,NE,36,4.2,4.2,74,0.00,SCT,,0.00,424.0,WeatherDisplay:10.37,2013-04-17 13:00:00,
2013-04-17 09:05:00,77.5,67.8,30.12,NNE,24,4.8,9.2,72,0.00,FEW,,0.00,471.0,WeatherDisplay:10.37,2013-04-17 13:05:00,
2013-04-17 09:10:00,78.0,68.2,30.12,NE,41,1.7,6.9,72,0.00,CLR,,0.00,471.0,WeatherDisplay:10.37,2013-04-17 13:10:00,
2013-04-17 09:15:00,78.8,68.6,30.13,NNE,19,5.7,6.9,71,0.00,CLR,,0.00,471.0,WeatherDisplay:10.37,2013-04-17 13:15:00,
2013-04-17 09:20:00,79.0,68.0,30.13,NNE,25,4.4,6.0,69,0.00,CLR,,0.00,490.0,WeatherDisplay:10.37,2013-04-17 13:20:00,
2013-04-17 09:25:00,79.3,68.7,30.13,NNE,28,2.3,11.5,70,0.00,CLR,,0.00,515.0,WeatherDisplay:10.37,2013-04-17 13:25:00,
2013-04-17 09:30:00,79.6,68.5,30.13,ENE,71,3.5,3.5,69,0.00,CLR,,0.00,526.0,WeatherDisplay:10.37,2013-04-17 13:30:00,
2013-04-17 09:35:00,79.9,68.8,30.13,NE,47,4.5,4.5,69,0.00,CLR,,0.00,287.0,WeatherDisplay:10.37,2013-04-17 13:35:00,
2013-04-17 09:40:00,80.2,68.2,30.13,NNE,23,5.6,8.1,67,0.00,FEW,,0.00,561.0,WeatherDisplay:10.37,2013-04-17 13:40:00,
2013-04-17 09:45:00,80.0,68.1,30.13,NE,47,4.9,5.8,67,0.00,FEW,,0.00,571.0,WeatherDisplay:10.37,2013-04-17 13:45:00,
2013-04-17 09:50:00,80.3,68.8,30.13,North,5,3.4,9.2,68,0.00,CLR,,0.00,582.0,WeatherDisplay:10.37,2013-04-17 13:50:00,
2013-04-17 09:55:00,80.2,68.2,30.13,ENE,72,4.6,9.2,67,0.00,CLR,,0.00,612.0,WeatherDisplay:10.37,2013-04-17 13:55:00,
2013-04-17 10:00:00,80.4,68.0,30.12,NNE,30,2.8,6.9,66,0.00,CLR,,0.00,621.0,WeatherDisplay:10.37,2013-04-17 14:00:00,
2013-04-17 10:05:00,80.7,68.7,30.12,NE,43,5.4,9.0,67,0.00,CLR,,0.00,649.0,WeatherDisplay:10.37,2013-04-17 14:05:00,
2013-04-17 10:10:00,80.9,68.9,30.12,NE,46,5.4,8.1,67,0.00,CLR,,0.00,745.0,WeatherDisplay:10.37,2013-04-17 14:10:00,
2013-04-17 10:15:00,81.2,69.2,30.12,NE,51,3.6,10.4,67,0.00,CLR,,0.00,679.0,WeatherDisplay:10.37,2013-04-17 14:15:00,
2013-04-17 10:20:00,81.1,68.7,30.12,ENE,63,6.8,11.5,66,0.00,CLR,,0.00,728.0,WeatherDisplay:10.37,2013-04-17 14:20:00,
2013-04-17 10:25:00,81.5,69.9,30.12,NNE,30,2.9,3.5,68,0.00,CLR,,0.00,710.0,WeatherDisplay:10.37,2013-04-17 14:25:00,
2013-04-17 10:30:00,81.8,69.3,30.12,ENE,65,4.9,8.1,66,0.00,FEW,,0.00,244.0,WeatherDisplay:10.37,2013-04-17 14:30:00,
2013-04-17 10:35:00,80.8,68.4,30.13,ENE,78,3.1,11.5,66,0.00,BKN,,0.00,327.0,WeatherDisplay:10.37,2013-04-17 14:35:00,
2013-04-17 10:40:00,80.5,69.0,30.13,NE,47,6.1,9.2,68,0.00,BKN,,0.00,905.0,WeatherDisplay:10.37,2013-04-17 14:40:00,
2013-04-17 10:46:00,81.1,68.7,30.13,NE,51,6.0,10.0,66,0.00,FEW,FEW,0.00,854.0,WeatherDisplay:10.37,2013-04-17 14:46:00,
2013-04-17 10:51:00,81.6,68.7,30.13,NE,45,6.0,12.0,65,0.00,CLR,CLR,0.00,847.0,WeatherDisplay:10.37,2013-04-17 14:51:00,
2013-04-17 10:55:00,81.1,68.2,30.12,NNE,17,5.0,12.0,65,0.00,CLR,CLR,0.00,814.0,WeatherDisplay:10.37,2013-04-17 14:55:00,
2013-04-17 11:00:00,81.2,67.9,30.13,ENE,68,6.6,10.4,64,0.00,CLR,,0.00,802.0,WeatherDisplay:10.37,2013-04-17 15:00:00,
2013-04-17 11:05:00,81.3,67.5,30.12,ENE,64,6.0,8.1,63,0.00,CLR,,0.00,805.0,WeatherDisplay:10.37,2013-04-17 15:05:00,
2013-04-17 11:10:00,81.4,68.1,30.12,NNE,21,6.9,10.4,64,0.00,FEW,,0.00,902.0,WeatherDisplay:10.37,2013-04-17 15:10:00,
2013-04-17 11:15:00,81.6,69.1,30.12,NE,46,3.9,5.0,66,0.00,CLR,,0.00,918.0,WeatherDisplay:10.37,2013-04-17 15:15:00,
2013-04-17 11:20:00,82.5,69.5,30.12,NNE,24,7.5,11.5,65,0.00,CLR,,0.00,974.0,WeatherDisplay:10.37,2013-04-17 15:20:00,
2013-04-17 11:25:00,82.6,68.3,30.12,NNE,28,4.2,9.0,62,0.00,FEW,,0.00,334.0,WeatherDisplay:10.37,2013-04-17 15:25:00,
2013-04-17 11:30:00,82.1,68.3,30.12,NNE,33,7.5,9.2,63,0.00,FEW,,0.00,939.0,WeatherDisplay:10.37,2013-04-17 15:30:00,
2013-04-17 11:35:00,82.1,69.2,30.12,NE,44,3.0,16.0,65,0.00,FEW,FEW,0.00,954.0,WeatherDisplay:10.37,2013-04-17 15:35:00,
2013-04-17 11:40:00,82.6,68.3,30.12,NNE,30,8.3,11.5,62,0.00,FEW,,0.00,478.0,WeatherDisplay:10.37,2013-04-17 15:40:00,
2013-04-17 11:45:00,82.8,68.4,30.12,NNE,26,7.7,11.5,62,0.00,FEW,,0.00,958.0,WeatherDisplay:10.37,2013-04-17 15:45:00,
2013-04-17 11:50:00,83.0,69.1,30.12,NE,36,5.2,9.2,63,0.00,FEW,,0.00,1023.0,WeatherDisplay:10.37,2013-04-17 15:50:00,
2013-04-17 11:55:00,83.3,68.4,30.12,NE,37,6.0,9.2,61,0.00,CLR,,0.00,1088.0,WeatherDisplay:10.37,2013-04-17 15:55:00,
2013-04-17 12:00:00,82.3,67.0,30.12,NNE,14,8.1,12.7,60,0.00,CLR,,0.00,325.0,WeatherDisplay:10.37,2013-04-17 16:00:00,
2013-04-17 12:05:00,80.8,66.6,30.12,ENE,64,3.0,6.9,62,0.00,SCT,,0.00,315.0,WeatherDisplay:10.37,2013-04-17 16:05:00,
2013-04-17 12:10:00,80.1,66.8,30.11,North,360,4.6,10.4,64,0.00,BKN,,0.00,557.0,WeatherDisplay:10.37,2013-04-17 16:10:00,
2013-04-17 12:15:00,80.5,67.2,30.11,ENE,57,2.8,4.6,64,0.00,SCT,,0.00,1009.0,WeatherDisplay:10.37,2013-04-17 16:15:00,
2013-04-17 12:20:00,81.2,67.9,30.11,ENE,57,5.2,9.0,64,0.00,FEW,,0.00,679.0,WeatherDisplay:10.37,2013-04-17 16:20:00,
2013-04-17 12:25:00,82.1,68.3,30.11,ENE,74,5.8,5.8,63,0.00,FEW,,0.00,773.0,WeatherDisplay:10.37,2013-04-17 16:25:00,
2013-04-17 12:30:00,82.4,67.6,30.11,East,88,4.1,6.9,61,0.00,SCT,,0.00,902.0,WeatherDisplay:10.37,2013-04-17 16:30:00,
2013-04-17 12:35:00,82.5,67.2,30.11,ENE,67,2.8,8.1,60,0.00,FEW,,0.00,962.0,WeatherDisplay:10.37,2013-04-17 16:35:00,
2013-04-17 12:40:00,83.0,67.7,30.10,NNE,24,5.0,8.1,60,0.00,FEW,,0.00,984.0,WeatherDisplay:10.37,2013-04-17 16:40:00,
2013-04-17 12:45:00,83.4,67.1,30.10,ENE,78,5.2,9.0,58,0.00,FEW,,0.00,742.0,WeatherDisplay:10.37,2013-04-17 16:45:00,
2013-04-17 12:50:00,82.7,66.9,30.10,East,82,3.8,9.2,59,0.00,SCT,,0.00,294.0,WeatherDisplay:10.37,2013-04-17 16:50:00,
2013-04-17 12:55:00,82.3,67.5,30.10,ENE,64,4.5,9.2,61,0.00,SCT,,0.00,956.0,WeatherDisplay:10.37,2013-04-17 16:55:00,
2013-04-17 13:00:00,82.5,67.7,30.10,NNE,29,6.2,10.4,61,0.00,SCT,,0.00,939.0,WeatherDisplay:10.37,2013-04-17 17:00:00,
2013-04-17 13:05:00,82.1,66.8,30.10,NE,49,5.1,9.2,60,0.00,FEW,,0.00,932.0,WeatherDisplay:10.37,2013-04-17 17:05:00,
2013-04-17 13:10:00,82.5,68.6,30.09,ENE,57,3.3,9.2,63,0.00,FEW,,0.00,937.0,WeatherDisplay:10.37,2013-04-17 17:10:00,
2013-04-17 13:15:00,83.0,68.6,30.09,ENE,73,1.5,6.9,62,0.00,FEW,,0.00,935.0,WeatherDisplay:10.37,2013-04-17 17:15:00,
2013-04-17 13:21:00,83.5,68.6,30.09,ENE,64,3.0,9.0,61,0.00,FEW,FEW,0.00,937.0,WeatherDisplay:10.37,2013-04-17 17:21:00,
2013-04-17 13:26:00,83.4,66.5,30.09,ENE,63,6.0,12.0,57,0.00,FEW,FEW,0.00,940.0,WeatherDisplay:10.37,2013-04-17 17:26:00,
2013-04-17 13:31:00,83.5,67.6,30.09,ENE,58,3.0,10.0,59,0.00,FEW,FEW,0.00,942.0,WeatherDisplay:10.37,2013-04-17 17:31:00,
2013-04-17 13:36:00,83.4,67.6,30.09,NE,52,3.0,12.0,59,0.00,FEW,FEW,0.00,933.0,WeatherDisplay:10.37,2013-04-17 17:36:00,
2013-04-17 13:41:00,83.3,67.5,30.09,NE,47,2.0,9.0,59,0.00,FEW,FEW,0.00,940.0,WeatherDisplay:10.37,2013-04-17 17:41:00,
2013-04-17 13:46:00,83.1,68.3,30.08,ENE,57,3.0,10.0,61,0.00,FEW,FEW,0.00,944.0,WeatherDisplay:10.37,2013-04-17 17:46:00,
2013-04-17 13:51:00,83.6,67.7,30.08,ENE,73,5.0,9.0,59,0.00,FEW,FEW,0.00,953.0,WeatherDisplay:10.37,2013-04-17 17:51:00,
2013-04-17 13:56:00,83.7,66.3,30.08,ENE,57,5.0,9.0,56,0.00,FEW,FEW,0.00,939.0,WeatherDisplay:10.37,2013-04-17 17:56:00,
2013-04-17 14:01:00,83.5,66.7,30.08,NE,45,6.0,12.0,57,0.00,FEW,FEW,0.00,935.0,WeatherDisplay:10.37,2013-04-17 18:01:00,
2013-04-17 14:06:00,83.2,68.3,30.08,NE,43,3.0,9.0,61,0.00,FEW,FEW,0.00,923.0,WeatherDisplay:10.37,2013-04-17 18:06:00,
2013-04-17 14:11:00,83.2,66.8,30.08,NE,50,6.0,10.0,58,0.00,FEW,FEW,0.00,921.0,WeatherDisplay:10.37,2013-04-17 18:11:00,
2013-04-17 14:16:00,83.5,66.7,30.08,NE,41,5.0,9.0,57,0.00,FEW,FEW,0.00,840.0,WeatherDisplay:10.37,2013-04-17 18:16:00,
2013-04-17 14:21:00,83.4,66.6,30.08,NE,54,5.0,9.0,57,0.00,FEW,FEW,0.00,898.0,WeatherDisplay:10.37,2013-04-17 18:21:00,
2013-04-17 14:26:00,83.3,66.9,30.07,ENE,61,2.0,9.0,58,0.00,FEW,FEW,0.00,889.0,WeatherDisplay:10.37,2013-04-17 18:26:00,
2013-04-17 14:31:00,83.5,67.7,30.07,ENE,57,5.0,9.0,59,0.00,FEW,FEW,0.00,844.0,WeatherDisplay:10.37,2013-04-17 18:31:00,
2013-04-17 14:36:00,83.7,67.8,30.07,ENE,60,3.0,12.0,59,0.00,FEW,FEW,0.00,840.0,WeatherDisplay:10.37,2013-04-17 18:36:00,
2013-04-17 14:40:00,83.4,66.6,30.07,NE,50,3.0,10.0,57,0.00,FEW,FEW,0.00,872.0,WeatherDisplay:10.37,2013-04-17 18:40:00,
2013-04-17 14:45:00,83.5,66.7,30.06,NNE,31,5.5,5.8,57,0.00,FEW,,0.00,865.0,WeatherDisplay:10.37,2013-04-17 18:45:00,
2013-04-17 14:50:00,83.7,68.3,30.06,NE,44,4.3,8.1,60,0.00,FEW,,0.00,835.0,WeatherDisplay:10.37,2013-04-17 18:50:00,
2013-04-17 14:55:00,83.8,68.4,30.06,East,80,2.3,9.2,60,0.00,FEW,,0.00,823.0,WeatherDisplay:10.37,2013-04-17 18:55:00,
2013-04-17 15:00:00,84.2,67.3,30.06,NE,38,4.6,7.0,57,0.00,FEW,,0.00,844.0,WeatherDisplay:10.37,2013-04-17 19:00:00,
2013-04-17 15:05:00,84.4,67.0,30.06,NNE,14,6.0,6.0,56,0.00,FEW,,0.00,838.0,WeatherDisplay:10.37,2013-04-17 19:05:00,
2013-04-17 15:10:00,83.7,67.8,30.06,NE,56,4.7,9.0,59,0.00,FEW,,0.00,835.0,WeatherDisplay:10.37,2013-04-17 19:10:00,
2013-04-17 15:15:00,83.8,67.9,30.06,NNE,17,2.8,3.5,59,0.00,FEW,,0.00,875.0,WeatherDisplay:10.37,2013-04-17 19:15:00,
2013-04-17 15:20:00,84.2,66.8,30.06,NNE,22,8.0,11.5,56,0.00,FEW,,0.00,868.0,WeatherDisplay:10.37,2013-04-17 19:20:00,
2013-04-17 15:25:00,83.5,66.7,30.06,NNE,24,5.8,6.9,57,0.00,CLR,,0.00,911.0,WeatherDisplay:10.37,2013-04-17 19:25:00,
2013-04-17 15:30:00,83.2,67.4,30.06,NE,36,3.9,5.8,59,0.00,CLR,,0.00,905.0,WeatherDisplay:10.37,2013-04-17 19:30:00,
2013-04-17 15:35:00,82.9,66.1,30.06,NNE,32,5.8,8.1,57,0.00,CLR,,0.00,867.0,WeatherDisplay:10.37,2013-04-17 19:35:00,
2013-04-17 15:40:00,83.3,67.5,30.05,ENE,57,3.2,8.1,59,0.00,CLR,,0.00,788.0,WeatherDisplay:10.37,2013-04-17 19:40:00,
2013-04-17 15:45:00,84.0,66.1,30.05,North,11,5.1,6.9,55,0.00,CLR,,0.00,731.0,WeatherDisplay:10.37,2013-04-17 19:45:00,
2013-04-17 15:50:00,83.5,66.2,30.05,NE,35,7.1,10.0,56,0.00,FEW,,0.00,740.0,WeatherDisplay:10.37,2013-04-17 19:50:00,
2013-04-17 15:55:00,82.9,67.1,30.05,NNE,22,3.9,6.9,59,0.00,FEW,,0.00,504.0,WeatherDisplay:10.37,2013-04-17 19:55:00,
2013-04-17 16:00:00,82.5,65.7,30.05,NE,51,5.2,8.1,57,0.00,SCT,,0.00,492.0,WeatherDisplay:10.37,2013-04-17 20:00:00,
2013-04-17 16:05:00,82.5,66.7,30.05,ENE,60,3.6,3.6,59,0.00,SCT,,0.00,700.0,WeatherDisplay:10.37,2013-04-17 20:05:00,
2013-04-17 16:10:00,82.6,66.3,30.05,NNE,26,5.6,10.0,58,0.00,FEW,,0.00,605.0,WeatherDisplay:10.37,2013-04-17 20:10:00,
2013-04-17 16:15:00,81.9,66.6,30.05,NNE,24,4.0,6.0,60,0.00,SCT,,0.00,295.0,WeatherDisplay:10.37,2013-04-17 20:15:00,
2013-04-17 16:20:00,81.6,66.8,30.05,NE,40,4.2,6.9,61,0.00,SCT,,0.00,643.0,WeatherDisplay:10.37,2013-04-17 20:20:00,
2013-04-17 16:25:00,81.8,66.1,30.04,East,82,3.1,10.4,59,0.00,SCT,,0.00,577.0,WeatherDisplay:10.37,2013-04-17 20:25:00,
2013-04-17 16:30:00,82.3,67.0,30.05,ENE,74,3.6,4.6,60,0.00,FEW,,0.00,520.0,WeatherDisplay:10.37,2013-04-17 20:30:00,
2013-04-17 16:35:00,82.7,66.4,30.05,NE,34,3.1,5.8,58,0.00,FEW,,0.00,487.0,WeatherDisplay:10.37,2013-04-17 20:35:00,
2013-04-17 16:40:00,83.0,66.2,30.05,East,91,1.8,8.1,57,0.00,FEW,,0.00,499.0,WeatherDisplay:10.37,2013-04-17 20:40:00,
2013-04-17 16:45:00,83.0,66.7,30.05,NNE,28,5.1,9.2,58,0.00,FEW,,0.00,582.0,WeatherDisplay:10.37,2013-04-17 20:45:00,
2013-04-17 16:50:00,82.9,67.1,30.05,ENE,68,1.6,4.6,59,0.00,FEW,,0.00,533.0,WeatherDisplay:10.37,2013-04-17 20:50:00,
2013-04-17 16:55:00,83.1,66.3,30.05,East,90,5.3,10.4,57,0.00,FEW,,0.00,490.0,WeatherDisplay:10.37,2013-04-17 20:55:00,
2013-04-17 17:00:00,82.8,66.5,30.05,NE,54,6.0,10.4,58,0.00,FEW,,0.00,513.0,WeatherDisplay:10.37,2013-04-17 21:00:00,
2013-04-17 17:05:00,82.7,67.4,30.05,East,87,1.7,5.8,60,0.00,FEW,,0.00,483.0,WeatherDisplay:10.37,2013-04-17 21:05:00,
2013-04-17 17:10:00,82.0,66.3,30.05,NNE,32,4.3,10.4,59,0.00,FEW,,0.00,457.0,WeatherDisplay:10.37,2013-04-17 21:10:00,
2013-04-17 17:15:00,81.7,66.5,30.04,NE,39,4.7,5.8,60,0.00,FEW,,0.00,396.0,WeatherDisplay:10.37,2013-04-17 21:15:00,
2013-04-17 17:20:00,81.0,66.8,30.04,ENE,63,2.6,4.6,62,0.00,FEW,,0.00,446.0,WeatherDisplay:10.37,2013-04-17 21:20:00,
2013-04-17 17:25:00,80.9,66.7,30.04,ENE,65,4.7,4.7,62,0.00,FEW,,0.00,385.0,WeatherDisplay:10.37,2013-04-17 21:25:00,
2013-04-17 17:30:00,81.0,66.8,30.04,NE,43,5.8,9.2,62,0.00,FEW,,0.00,292.0,WeatherDisplay:10.37,2013-04-17 21:30:00,
2013-04-17 17:35:00,80.5,66.7,30.04,NNE,25,3.7,4.6,63,0.00,FEW,,0.00,396.0,WeatherDisplay:10.37,2013-04-17 21:35:00,
2013-04-17 17:40:00,80.1,66.8,30.04,NE,54,4.3,9.2,64,0.00,FEW,,0.00,380.0,WeatherDisplay:10.37,2013-04-17 21:40:00,
2013-04-17 17:45:00,80.1,66.4,30.04,North,11,5.2,8.1,63,0.00,CLR,,0.00,350.0,WeatherDisplay:10.37,2013-04-17 21:45:00,
2013-04-17 17:50:00,79.8,67.0,30.04,NE,50,3.6,8.1,65,0.00,SCT,,0.00,56.0,WeatherDisplay:10.37,2013-04-17 21:50:00,
2013-04-17 17:55:00,79.9,66.6,30.04,NE,45,3.0,9.2,64,0.00,BKN,,0.00,63.0,WeatherDisplay:10.37,2013-04-17 21:55:00,
2013-04-17 18:00:00,79.7,66.9,30.05,ENE,69,2.7,10.4,65,0.00,BKN,,0.00,58.0,WeatherDisplay:10.37,2013-04-17 22:00:00,
2013-04-17 18:05:00,79.7,66.9,30.04,NE,36,3.9,5.8,65,0.00,BKN,,0.00,44.0,WeatherDisplay:10.37,2013-04-17 22:05:00,
2013-04-17 18:10:00,79.2,66.9,30.04,ENE,69,3.7,8.1,66,0.00,BKN,,0.00,54.0,WeatherDisplay:10.37,2013-04-17 22:10:00,
2013-04-17 18:15:00,78.9,66.6,30.04,NE,41,3.7,4.0,66,0.00,BKN,,0.00,42.0,WeatherDisplay:10.37,2013-04-17 22:15:00,
2013-04-17 18:20:00,78.5,66.6,30.04,NE,40,2.9,9.2,67,0.00,BKN,,0.00,49.0,WeatherDisplay:10.37,2013-04-17 22:20:00,
2013-04-17 18:25:00,78.5,66.6,30.05,East,80,4.0,8.1,67,0.00,BKN,,0.00,63.0,WeatherDisplay:10.37,2013-04-17 22:25:00,
2013-04-17 18:30:00,78.8,66.9,30.05,NE,55,4.2,7.0,67,0.00,BKN,,0.00,40.0,WeatherDisplay:10.37,2013-04-17 22:30:00,
2013-04-17 18:36:00,78.8,66.5,30.05,NNE,13,3.7,8.1,66,0.00,BKN,,0.00,42.0,WeatherDisplay:10.37,2013-04-17 22:36:00,
2013-04-17 18:41:00,78.4,66.5,30.05,NNE,17,4.4,10.4,67,0.00,BKN,,0.00,42.0,WeatherDisplay:10.37,2013-04-17 22:41:00,
2013-04-17 18:46:00,77.7,65.9,30.05,NNE,19,4.3,9.2,67,0.00,BKN,,0.00,33.0,WeatherDisplay:10.37,2013-04-17 22:46:00,
2013-04-17 18:51:00,77.5,66.5,30.05,NE,36,2.4,3.5,69,0.00,BKN,,0.00,39.0,WeatherDisplay:10.37,2013-04-17 22:51:00,
2013-04-17 18:56:00,77.4,66.0,30.05,North,355,2.8,8.0,68,0.00,BKN,,0.00,33.0,WeatherDisplay:10.37,2013-04-17 22:56:00,
2013-04-17 19:01:00,77.3,66.3,30.05,North,355,2.2,5.8,69,0.00,BKN,,0.00,33.0,WeatherDisplay:10.37,2013-04-17 23:01:00,
2013-04-17 19:06:00,77.3,66.3,30.06,ENE,78,2.1,3.5,69,0.00,BKN,,0.00,30.0,WeatherDisplay:10.37,2013-04-17 23:06:00,
2013-04-17 19:11:00,77.1,66.1,30.06,NNE,22,5.6,5.6,69,0.00,BKN,,0.00,23.0,WeatherDisplay:10.37,2013-04-17 23:11:00,
2013-04-17 19:16:00,76.9,66.4,30.06,ENE,67,1.0,3.5,70,0.00,BKN,,0.00,19.0,WeatherDisplay:10.37,2013-04-17 23:16:00,
2013-04-17 19:21:00,76.8,65.4,30.06,NE,36,1.2,3.5,68,0.00,BKN,,0.00,12.0,WeatherDisplay:10.37,2013-04-17 23:21:00,
2013-04-17 19:26:00,76.7,65.8,30.07,ENE,74,0.4,0.0,69,0.00,BKN,,0.00,11.0,WeatherDisplay:10.37,2013-04-17 23:26:00,
2013-04-17 19:31:00,76.6,66.1,30.07,NE,36,2.4,3.5,70,0.00,BKN,,0.00,9.0,WeatherDisplay:10.37,2013-04-17 23:31:00,
2013-04-17 19:36:00,76.3,65.4,30.07,ENE,59,0.3,4.6,69,0.00,BKN,,0.00,5.0,WeatherDisplay:10.37,2013-04-17 23:36:00,
2013-04-17 19:41:00,76.2,65.7,30.07,NNE,30,2.1,2.3,70,0.00,OVC,,0.00,0.0,WeatherDisplay:10.37,2013-04-17 23:41:00,
2013-04-17 19:46:00,76.1,66.0,30.07,NNE,30,0.0,0.0,71,0.00,OVC,,0.00,0.0,WeatherDisplay:10.37,2013-04-17 23:46:00,
2013-04-17 19:51:00,76.0,65.9,30.07,NE,49,2.5,3.5,71,0.00,OVC,,0.00,0.0,WeatherDisplay:10.37,2013-04-17 23:51:00,
2013-04-17 19:56:00,75.9,65.8,30.07,NE,54,2.6,3.5,71,0.00,OVC,,0.00,0.0,WeatherDisplay:10.37,2013-04-17 23:56:00,
2013-04-17 20:01:00,75.7,65.6,30.07,ENE,61,0.9,3.5,71,0.00,OVC,,0.00,0.0,WeatherDisplay:10.37,2013-04-18 00:01:00,
2013-04-17 20:06:00,75.7,66.0,30.07,NNE,20,0.0,0.0,72,0.00,CLR,,0.00,0.0,WeatherDisplay:10.37,2013-04-18 00:06:00,
2013-04-17 20:11:00,75.7,66.4,30.07,NE,39,1.7,0.0,73,0.00,CLR,,0.00,0.0,WeatherDisplay:10.37,2013-04-18 00:11:00,
2013-04-17 20:16:00,75.5,66.2,30.07,NNE,13,0.9,3.5,73,0.00,CLR,,0.00,0.0,WeatherDisplay:10.37,2013-04-18 00:16:00,
2013-04-17 20:21:00,75.5,66.2,30.07,East,87,3.5,4.6,73,0.00,CLR,,0.00,0.0,WeatherDisplay:10.37,2013-04-18 00:21:00,
2013-04-17 20:26:00,75.5,65.8,30.07,East,96,3.4,6.0,72,0.00,CLR,,0.00,0.0,WeatherDisplay:10.37,2013-04-18 00:26:00,
2013-04-17 20:31:00,75.7,65.6,30.07,ENE,62,1.7,4.6,71,0.00,CLR,,0.00,0.0,WeatherDisplay:10.37,2013-04-18 00:31:00,
2013-04-17 20:36:00,75.8,64.9,30.07,ENE,65,3.1,5.8,69,0.00,CLR,,0.00,0.0,WeatherDisplay:10.37,2013-04-18 00:36:00,
2013-04-17 20:41:00,75.8,65.3,30.07,ENE,67,2.8,4.0,70,0.00,CLR,,0.00,0.0,WeatherDisplay:10.37,2013-04-18 00:41:00,
2013-04-17 20:46:00,75.8,65.3,30.07,ENE,73,1.7,3.5,70,0.00,CLR,,0.00,0.0,WeatherDisplay:10.37,2013-04-18 00:46:00,
2013-04-17 20:51:00,75.7,65.6,30.07,ENE,63,2.3,5.0,71,0.00,CLR,,0.00,0.0,WeatherDisplay:10.37,2013-04-18 00:51:00,
2013-04-17 20:56:00,75.5,65.8,30.07,NNE,19,2.1,4.6,72,0.00,CLR,,0.00,0.0,WeatherDisplay:10.37,2013-04-18 00:56:00,
2013-04-17 21:01:00,75.5,65.8,30.08,ENE,63,2.6,6.9,72,0.00,CLR,,0.00,0.0,WeatherDisplay:10.37,2013-04-18 01:01:00,
2013-04-17 21:06:00,75.5,65.4,30.08,East,82,3.7,6.0,71,0.00,CLR,,0.00,0.0,WeatherDisplay:10.37,2013-04-18 01:06:00,
2013-04-17 21:11:00,75.4,65.3,30.08,ENE,74,0.9,3.5,71,0.00,CLR,,0.00,0.0,WeatherDisplay:10.37,2013-04-18 01:11:00,
2013-04-17 21:16:00,75.3,65.6,30.08,ENE,77,3.0,4.0,72,0.00,CLR,,0.00,0.0,WeatherDisplay:10.37,2013-04-18 01:16:00,
2013-04-17 21:21:00,75.2,65.9,30.08,NNE,19,2.2,3.5,73,0.00,CLR,,0.00,0.0,WeatherDisplay:10.37,2013-04-18 01:21:00,
2013-04-17 21:26:00,75.3,66.4,30.08,ENE,74,3.9,5.8,74,0.00,CLR,,0.00,0.0,WeatherDisplay:10.37,2013-04-18 01:26:00,
2013-04-17 21:31:00,75.3,66.4,30.08,ENE,78,0.9,4.6,74,0.00,CLR,,0.00,0.0,WeatherDisplay:10.37,2013-04-18 01:31:00,
2013-04-17 21:36:00,75.3,65.6,30.08,NE,52,2.6,8.1,72,0.00,CLR,,0.00,0.0,WeatherDisplay:10.37,2013-04-18 01:36:00,
2013-04-17 21:41:00,75.3,66.0,30.08,ENE,63,3.3,4.6,73,0.00,CLR,,0.00,0.0,WeatherDisplay:10.37,2013-04-18 01:41:00,
2013-04-17 21:46:00,75.3,66.4,30.08,ENE,70,1.1,4.6,74,0.00,CLR,,0.00,0.0,WeatherDisplay:10.37,2013-04-18 01:46:00,
2013-04-17 21:51:00,75.3,65.6,30.08,ENE,72,3.2,8.1,72,0.00,CLR,,0.00,0.0,WeatherDisplay:10.37,2013-04-18 01:51:00,
2013-04-17 21:56:00,75.4,66.1,30.08,NE,56,1.7,4.6,73,0.00,CLR,,0.00,0.0,WeatherDisplay:10.37,2013-04-18 01:56:00,
2013-04-17 22:01:00,75.3,66.4,30.08,East,92,3.2,4.6,74,0.00,CLR,,0.00,0.0,WeatherDisplay:10.37,2013-04-18 02:01:00,
2013-04-17 22:07:00,75.1,66.2,30.08,East,81,0.0,3.0,74,0.00,CLR,CLR,0.00,0.0,WeatherDisplay:10.37,2013-04-18 02:07:00,
2013-04-17 22:12:00,75.1,66.6,30.08,ENE,75,2.0,4.0,75,0.00,CLR,CLR,0.00,0.0,WeatherDisplay:10.37,2013-04-18 02:12:00,
2013-04-17 22:17:00,75.1,66.2,30.08,ENE,74,2.0,5.0,74,0.00,CLR,CLR,0.00,0.0,WeatherDisplay:10.37,2013-04-18 02:17:00,
2013-04-17 22:22:00,74.9,65.7,30.08,East,86,3.0,6.0,73,0.00,CLR,CLR,0.00,0.0,WeatherDisplay:10.37,2013-04-18 02:22:00,
2013-04-17 22:27:00,74.8,66.3,30.08,ENE,76,3.0,6.0,75,0.00,CLR,CLR,0.00,0.0,WeatherDisplay:10.37,2013-04-18 02:27:00,
2013-04-17 22:32:00,74.8,65.9,30.08,ENE,64,1.0,7.0,74,0.00,CLR,CLR,0.00,0.0,WeatherDisplay:10.37,2013-04-18 02:32:00,
2013-04-17 22:37:00,74.9,66.1,30.08,ENE,61,0.0,6.0,74,0.00,CLR,CLR,0.00,0.0,WeatherDisplay:10.37,2013-04-18 02:37:00,
2013-04-17 22:42:00,75.0,66.1,30.08,ENE,69,1.0,6.0,74,0.00,CLR,CLR,0.00,0.0,WeatherDisplay:10.37,2013-04-18 02:42:00,
2013-04-17 22:47:00,75.0,65.8,30.08,East,79,3.0,7.0,73,0.00,CLR,CLR,0.00,0.0,WeatherDisplay:10.37,2013-04-18 02:47:00,
2013-04-17 22:52:00,75.1,66.2,30.08,ENE,75,2.0,6.0,74,0.00,CLR,CLR,0.00,0.0,WeatherDisplay:10.37,2013-04-18 02:52:00,
2013-04-17 22:57:00,75.1,66.3,30.07,ENE,68,3.0,7.0,74,0.00,CLR,CLR,0.00,0.0,WeatherDisplay:10.37,2013-04-18 02:57:00,
2013-04-17 23:02:00,75.1,66.2,30.07,ENE,74,2.0,7.0,74,0.00,CLR,CLR,0.00,0.0,WeatherDisplay:10.37,2013-04-18 03:02:00,
2013-04-17 23:07:00,75.0,65.8,30.07,ENE,73,3.0,7.0,73,0.00,CLR,CLR,0.00,0.0,WeatherDisplay:10.37,2013-04-18 03:07:00,
2013-04-17 23:11:00,75.1,65.9,30.07,ENE,72,3.0,8.0,73,0.00,CLR,CLR,0.00,0.0,WeatherDisplay:10.37,2013-04-18 03:11:00,
2013-04-17 23:17:00,75.3,66.0,30.07,ENE,71,3.2,3.5,73,0.00,CLR,,0.00,0.0,WeatherDisplay:10.37,2013-04-18 03:17:00,
2013-04-17 23:22:00,75.3,66.0,30.07,ENE,74,3.0,6.0,73,0.00,CLR,CLR,0.00,0.0,WeatherDisplay:10.37,2013-04-18 03:22:00,
2013-04-17 23:27:00,75.2,65.9,30.07,ENE,68,3.0,7.0,73,0.00,CLR,CLR,0.00,0.0,WeatherDisplay:10.37,2013-04-18 03:27:00,
2013-04-17 23:32:00,75.0,65.7,30.07,ENE,67,5.0,9.0,73,0.00,CLR,CLR,0.00,0.0,WeatherDisplay:10.37,2013-04-18 03:32:00,
2013-04-17 23:37:00,74.9,66.1,30.06,ENE,60,3.0,6.0,74,0.00,CLR,CLR,0.00,0.0,WeatherDisplay:10.37,2013-04-18 03:37:00,
2013-04-17 23:41:00,74.9,65.7,30.06,ENE,66,5.0,8.0,73,0.00,CLR,CLR,0.00,0.0,WeatherDisplay:10.37,2013-04-18 03:41:00,
2013-04-17 23:47:00,75.0,65.8,30.06,ENE,75,2.0,8.0,73,0.00,CLR,CLR,0.00,0.0,WeatherDisplay:10.37,2013-04-18 03:47:00,
2013-04-17 23:52:00,75.0,65.7,30.06,ENE,74,3.0,9.0,73,0.00,CLR,CLR,0.00,0.0,WeatherDisplay:10.37,2013-04-18 03:52:00,
2013-04-17 23:56:00,74.9,65.7,30.06,ENE,68,3.0,8.0,73,0.00,CLR,CLR,0.00,0.0,WeatherDisplay:10.37,2013-04-18 03:56:00,